Retour au catalogue

STARLINK-5443

ActifCommunicationsVLEO
NORAD 54781·PAYLOAD·🇺🇸 United States

Lancé Dec 17, 2022 depuis Cape Canaveral Space Force Station

Loading…

Prochains Passages (prochaines 24 heures)

TLE

FraisSource: CelesTrak SupGP

Époque: Sep 14, 2026, 21:18 UTC

1 54781C 22175Z   26257.88798611  .00047036  00000+0  13897-2 0  2578
2 54781  53.1573 245.8846 0001248  94.0930 171.9790 15.34366849    12

Suivez STARLINK-5443 en temps réel avec AllMySat

Download on the App Store